MOLNIYA 3-13

Last updated on Jan. 24, 2021, 6:18 a.m. UTC

1 11896U 80063A   21023.54706405  .00000574  00000-0  00000-0 0  9997
2 11896  62.5966 200.7559 7071203 276.0513  14.3653  2.00583077296880
UTC
Height (km)
Latitude
Longitude
Inclination
Orbital Period
UTC large
Height (km)
Speed (km/s)
/
Latitude / Longitude
Inclination (degrees)
Orbital Period (minutes)
Azimuth
Elevation
Range (km)
Doppler Factor
iOS Compass Heading
iOS Angle

Next 30 passes for location: Hong Kong

Rise time Rise Azimuth (degrees) Set time Set Azimuth (degrees) Duration Max altitude (degrees)

No matching passes for this satellites